Temperature
13 13 13 13 14 14 14 14 14 14 14 15 15 15 15 15 15 15 16 16 16 16 16 16 16 16 16 16 16 16 16 16 16 16 16 16 16 16
13 13 13 13 13 13 13 13 14 14 14 14 14 15 15 15 15 15 15 16 16 16 16 16 16 16 16 16 16 16 16 16 16 16 16 16 15 15
13 13 13 13 13 13 13 13 13 13 14 14 14 14 14 14 15 15 15 15 15 15 15 16 16 16 16 16 16 16 16 16 16 16 15 15 15 15
13 13 13 13 13 13 13 13 13 13 13 14 14 14 14 14 14 14 15 15 15 15 15 15 15 15 15 15 16 16 16 16 16 16 15 15 15 15
13 13 13 13 13 13 13 13 13 13 13 14 14 14 14 14 14 14 14 14 14 15 15 15 15 15 15 15 15 15 15 15 15 15 15 15 15 15
13 13 13 13 13 13 13 13 13 13 13 13 13 14 14 14 14 14 14 14 14 14 14 14 14 15 15 15 15 15 15 15 15 15 15 15 15 15
13 13 13 13 13 13 13 13 13 13 13 13 13 13 13 13 13 13 14 14 14 14 14 14 14 14 14 14 15 15 15 15 15 15 15 15 15 15
13 13 13 13 13 13 13 13 13 13 13 13 13 13 13 13 13 13 13 13 13 13 13 14 14 14 14 14 14 14 14 14 14 15 14 15 14 14
13 13 13 13 13 13 13 13 13 13 13 13 13 13 13 13 13 13 13 13 13 13 13 13 14 14 14 14 14 14 14 14 14 14 14 14 14 14
13 13 13 13 13 13 13 13 13 13 13 13 13 13 13 13 13 13 13 13 13 13 13 13 13 13 13 13 14 14 14 14 14 14 14 14 14 14
13 13 13 13 13 13 13 13 13 13 13 12 12 13 13 13 13 12 12 12 12 13 13 13 13 13 13 13 13 13 13 13 13 13 14 13 14 14
13 13 13 13 13 13 13 13 13 13 12 12 12 13 12 12 12 12 12 12 12 12 12 12 12 12 12 13 13 13 13 13 13 13 13 13 13 13
13 13 13 13 13 13 13 13 13 12 12 12 12 12 12 12 12 12 12 12 12 12 12 12 12 12 12 12 12 13 13 13 13 13 13 13 13 13
13 13 13 13 13 12 12 12 12 12 12 12 12 12 12 12 12 12 12 12 12 12 12 12 12 12 12 12 12 12 12 12 12 12 12 12 12 12
12 12 12 12 12 12 12 12 12 12 12 11 11 11 11 11 11 11 11 11 11 11 11 11 11 11 11 11 11 11 11 12 12 12 12 12 12 12
12 12 12 12 11 11 11 11 11 11 11 11 11 11 11 11 11 11 11 11 11 11 11 11 11 11 11 11 11 11 11 11 11 11 11 11 11 11
11 11 11 11 11 11 11 11 10 10 10 10 10 10 10 10 10 10 10 10 10 10 10 10 10 10 10 10 10 11 11 11 11 11 11 11 11 11
11 11 10 10 10 10 10 10 10 10 9 9 9 9 9 9 9 9 9 9 9 9 9 9 9 10 10 10 10 10 10 10 10 10 10 10 10 10
10 10 10 9 9 9 9 9 9 9 9 9 8 8 8 9 9 9 9 9 9 9 9 8 8 8 8 8 9 9 9 9 9 9 9 9 9 10
9 9 9 9 8 8 8 8 8 8 8 8 8 8 8 8 8 8 8 8 8 8 8 8 8 7 7 7 8 8 8 8 8 8 9 9 9 9
9 8 8 8 8 7 7 7 7 7 7 7 7 7 7 7 7 7 6 6 6 7 7 7 7 6 7 7 7 7 8 8 7 7 7 8 8 8
8 8 8 7 7 7 7 6 6 6 6 6 6 6 6 6 6 6 6 5 5 5 5 6 6 6 6 6 6 6 7 7 7 7 7 7 7 7
7 7 7 7 7 6 6 6 6 6 5 5 5 5 5 5 5 5 4 4 4 4 4 4 5 5 5 4 5 5 5 6 6 6 7 7 6 6
Wind_Speed
1 1 1 1 1 0 0 1 1 0 1 1 0 0 1 2 6 7 7 10 12 13 13 12 12 11 11 11 12 13 13 14 15 15 15 15 15 15
1 2 2 1 1 1 1 1 1 1 1 1 1 1 1 2 5 5 6 10 13 13 13 13 12 12 11 11 11 12 13 14 15 15 15 15 15 16
1 1 1 1 1 1 1 1 2 2 1 1 1 2 2 2 2 3 4 6 9 13 14 13 13 12 12 12 12 12 13 14 15 15 16 15 15 15
1 0 1 1 1 1 1 1 1 2 2 2 1 1 1 2 2 3 3 5 6 10 13 14 13 12 12 12 12 13 13 13 14 14 15 16 16 16
0 0 0 1 0 1 1 1 1 1 1 1 1 1 1 1 1 1 2 1 3 7 11 13 14 14 13 13 13 13 13 14 14 14 15 16 16 17
1 1 1 1 1 1 0 1 0 0 1 1 1 1 1 1 1 1 1 1 2 3 5 8 11 13 14 14 14 14 14 14 14 15 15 15 16 16
1 1 1 2 3 2 0 1 1 1 1 1 1 1 1 1 1 1 1 1 2 1 1 3 4 5 8 12 14 15 15 15 15 16 16 16 16 17
1 0 1 2 3 2 1 1 1 1 1 1 1 1 2 1 1 1 1 0 1 1 1 2 2 4 5 8 12 15 16 16 16 16 16 17 17 17
1 0 0 1 3 2 1 2 2 3 3 2 2 2 2 1 1 1 1 2 2 3 1 2 2 4 4 7 11 14 16 16 16 16 16 16 17 17
1 1 1 1 2 2 0 1 1 1 2 1 2 2 1 1 1 2 2 2 2 2 2 3 3 3 3 4 10 13 15 15 15 16 16 16 16 16
0 1 1 2 4 4 1 1 1 1 1 1 1 1 2 2 1 1 1 1 2 2 2 2 2 2 2 3 6 10 13 14 14 15 15 15 16 15
1 2 4 3 4 4 2 1 1 2 1 1 1 2 2 2 3 4 3 3 2 2 2 1 1 1 2 2 2 3 6 9 12 13 14 15 15 10
2 2 2 4 4 4 3 1 1 2 2 1 1 1 1 1 1 2 2 3 2 3 2 1 1 1 2 2 2 2 3 3 5 7 12 14 14 12
2 2 2 4 3 3 2 3 4 3 2 1 1 1 2 2 2 2 2 1 1 3 3 2 2 2 2 3 3 3 3 3 3 4 5 9 12 14
1 2 2 2 1 1 2 4 4 2 2 2 2 2 2 2 2 2 3 3 3 3 2 0 1 1 2 3 3 3 3 4 4 4 4 5 5 5
0 0 1 1 2 3 3 3 2 2 2 1 1 2 2 2 2 2 2 3 2 3 3 3 1 1 2 4 4 4 4 3 3 4 4 4 4 6
1 1 2 2 3 3 3 4 4 4 4 3 3 3 3 2 2 2 1 2 2 2 3 3 3 3 3 4 4 5 4 4 4 4 4 5 6 6
3 2 3 3 3 3 3 3 4 4 4 3 3 3 3 3 3 3 3 2 2 3 3 3 4 4 3 3 4 3 3 4 4 4 3 4 6 5
4 3 3 3 3 3 3 3 3 3 4 4 4 4 4 4 4 4 4 4 4 4 3 3 3 3 4 5 5 3 4 5 4 4 4 4 6 6
3 3 3 3 3 3 3 3 3 3 3 3 3 4 4 4 4 4 4 4 4 4 4 3 3 3 3 5 5 6 6 4 3 4 5 5 6 7
3 3 2 3 3 3 3 3 3 3 3 3 3 3 4 4 4 4 4 5 4 4 4 4 5 7 5 4 5 5 5 6 7 5 5 5 6 5
3 3 3 3 3 3 3 3 3 3 3 3 3 3 4 4 4 5 4 4 4 4 5 5 5 5 4 4 6 7 7 7 8 11 9 7 5 5
3 4 4 4 3 3 3 3 3 3 4 4 4 4 4 4 4 4 4 4 4 5 6 6 5 5 5 5 6 7 8 8 6 6 6 9 13 14
Wind_Direction
292 289 245 232 207 278 46 152 153 224 272 224 86 157 143 144 168 188 196 199 196 199 200 200 201 203 207 211 212 212 212 211 212 213 215 215 215 217
218 231 241 221 164 195 211 227 176 175 237 266 254 225 200 187 193 201 205 196 199 201 202 201 203 204 208 211 213 214 215 215 214 215 218 219 219 219
287 222 248 225 184 216 210 205 199 183 213 262 271 217 192 185 181 203 196 196 202 205 205 205 206 208 209 213 216 218 220 220 218 219 220 220 221 222
313 317 291 274 177 219 205 214 203 192 183 220 250 239 212 198 193 204 200 204 199 203 203 205 208 210 212 214 218 220 221 222 221 222 223 223 224 226
178 119 354 15 73 215 202 220 228 217 182 198 227 240 237 207 195 224 220 206 209 203 202 207 210 213 216 218 220 221 222 222 223 224 224 226 226 226
50 68 58 55 48 18 356 321 296 251 251 225 223 226 225 229 181 204 242 245 239 214 199 202 210 215 219 222 223 224 225 226 225 227 227 228 229 229
25 54 90 111 106 113 117 330 334 265 255 238 248 259 242 198 196 213 213 256 279 225 193 208 199 209 218 225 226 226 226 226 226 227 230 231 232 231
39 81 147 151 153 150 162 201 208 225 239 240 244 244 249 216 184 186 169 166 279 260 163 250 214 217 219 215 220 220 222 224 227 229 230 232 233 231
2 60 14 111 139 165 192 204 225 244 238 228 235 247 262 240 197 219 217 222 242 239 220 255 244 239 232 225 220 219 222 224 226 229 232 233 232 231
271 209 208 87 74 73 226 216 223 256 259 225 219 244 264 255 207 219 223 260 280 258 201 232 247 247 248 224 227 223 223 225 227 229 230 232 232 232
327 54 68 73 61 51 36 302 259 269 258 153 196 255 274 278 240 194 228 233 273 267 226 214 243 264 266 250 231 224 224 226 229 231 232 232 233 233
39 83 77 70 61 46 35 7 354 324 352 351 319 295 272 253 234 205 206 220 245 258 228 188 251 291 291 270 229 211 227 236 235 237 237 237 235 230
14 50 60 68 63 45 39 45 320 316 308 288 269 283 300 297 250 234 218 205 219 248 240 147 257 262 249 286 284 245 226 226 229 241 242 240 236 226
2 45 65 67 53 35 26 359 348 351 334 326 353 10 6 349 340 322 307 294 249 240 237 211 217 224 241 270 277 276 260 247 234 237 232 237 237 235
48 55 75 62 13 28 14 5 8 6 4 15 16 6 353 344 353 356 356 355 346 336 327 285 220 242 231 246 263 273 282 266 237 240 243 233 229 226
267 59 75 56 37 21 15 18 31 35 36 35 4 349 352 6 4 3 359 352 350 333 331 332 283 235 259 261 259 271 267 269 265 251 254 251 244 231
58 63 58 54 53 53 45 38 35 33 31 19 22 18 13 12 357 353 3 359 355 336 333 335 318 277 253 256 270 268 270 276 276 268 260 264 258 247
79 81 71 65 62 55 47 39 40 33 22 25 30 28 19 13 5 2 5 8 352 342 338 333 338 341 336 301 253 272 284 282 286 283 271 271 272 264
84 88 81 70 65 64 56 51 48 38 32 32 34 29 22 17 15 10 4 3 357 348 340 348 5 5 339 320 307 277 289 292 292 286 273 266 272 274
89 93 91 82 75 71 68 55 47 44 40 32 28 25 19 14 9 4 360 358 349 343 341 352 358 342 305 292 292 292 274 280 296 294 290 286 278 278
105 97 89 87 82 75 70 63 58 53 43 33 28 22 16 12 3 355 349 349 351 344 338 329 315 311 299 305 305 304 301 283 283 286 293 296 296 294
120 114 97 86 79 70 59 53 52 49 41 35 24 20 15 13 3 356 351 347 341 334 326 320 323 330 327 314 304 303 305 306 292 287 280 271 275 284
123 116 109 96 83 72 61 52 50 47 42 35 26 15 11 5 357 351 344 342 338 337 335 330 329 325 316 307 303 303 307 310 311 311 299 292 285 281
Height
1480 1481 1482 1483 1484 1484 1485 1487 1488 1488 1489 1490 1491 1492 1493 1495 1497 1498 1500 1502 1504 1506 1508 1510 1512 1514 1516 1519 1521 1523 1525 1527 1529 1530 1532 1534 1536 1537
1479 1479 1480 1481 1482 1483 1484 1485 1486 1487 1488 1488 1489 1490 1491 1493 1495 1496 1497 1499 1501 1503 1505 1507 1509 1511 1513 1515 1517 1519 1521 1523 1524 1526 1528 1530 1531 1533
1478 1478 1479 1480 1481 1482 1483 1484 1485 1486 1486 1487 1488 1489 1490 1491 1492 1494 1495 1496 1498 1500 1502 1504 1505 1507 1509 1511 1513 1515 1517 1518 1520 1522 1523 1525 1526 1528
1477 1477 1478 1478 1479 1480 1481 1482 1483 1484 1485 1485 1486 1487 1488 1489 1490 1491 1492 1494 1495 1497 1499 1500 1502 1504 1505 1507 1509 1510 1512 1514 1515 1517 1519 1520 1521 1523
1476 1476 1476 1477 1478 1479 1479 1480 1481 1482 1483 1484 1484 1485 1486 1488 1488 1489 1490 1491 1492 1494 1495 1497 1498 1500 1501 1503 1504 1506 1507 1509 1510 1512 1514 1515 1517 1518
1476 1476 1476 1476 1476 1477 1478 1478 1479 1480 1481 1482 1483 1484 1485 1486 1486 1487 1488 1489 1490 1491 1492 1493 1495 1496 1497 1498 1500 1501 1503 1504 1505 1507 1508 1510 1511 1513
1476 1475 1475 1475 1476 1476 1476 1477 1478 1479 1479 1480 1481 1482 1483 1483 1484 1485 1486 1486 1487 1488 1489 1490 1491 1492 1493 1494 1495 1496 1498 1499 1500 1501 1503 1504 1506 1507
1475 1475 1475 1475 1475 1475 1475 1476 1477 1477 1478 1478 1479 1480 1480 1481 1482 1483 1483 1484 1484 1486 1486 1486 1487 1488 1489 1490 1491 1492 1493 1494 1495 1496 1497 1498 1500 1501
1475 1475 1475 1475 1474 1475 1475 1475 1475 1476 1477 1477 1477 1478 1478 1479 1479 1480 1481 1481 1481 1482 1483 1483 1484 1484 1485 1485 1486 1487 1488 1489 1490 1491 1492 1493 1494 1495
1475 1474 1474 1474 1474 1474 1474 1474 1474 1475 1475 1475 1475 1476 1476 1477 1477 1478 1478 1478 1479 1480 1480 1480 1480 1481 1481 1482 1482 1483 1483 1484 1484 1485 1486 1487 1488 1489
1474 1474 1473 1473 1473 1473 1473 1473 1473 1474 1474 1474 1474 1474 1474 1475 1475 1475 1475 1476 1476 1476 1477 1477 1477 1477 1477 1478 1478 1478 1478 1478 1479 1479 1480 1481 1482 1482
1473 1473 1473 1472 1472 1472 1472 1472 1472 1472 1472 1473 1473 1472 1472 1473 1473 1473 1473 1473 1473 1474 1474 1475 1474 1475 1474 1474 1474 1474 1474 1474 1474 1474 1474 1475 1476 1476
1471 1471 1471 1471 1471 1471 1471 1471 1471 1471 1471 1471 1471 1471 1471 1471 1471 1471 1471 1471 1471 1471 1472 1472 1471 1471 1471 1471 1470 1470 1470 1469 1469 1469 1469 1469 1470 1470
1470 1470 1470 1470 1470 1469 1469 1469 1469 1469 1469 1470 1470 1470 1469 1469 1469 1468 1468 1468 1469 1469 1469 1469 1468 1468 1468 1467 1466 1466 1465 1465 1464 1464 1464 1464 1464 1464
1468 1468 1468 1468 1468 1468 1468 1468 1468 1468 1468 1468 1468 1468 1468 1467 1467 1467 1466 1465 1465 1465 1465 1465 1465 1464 1464 1463 1462 1461 1461 1460 1460 1459 1458 1458 1458 1458
1467 1467 1467 1467 1467 1467 1467 1467 1467 1467 1466 1466 1466 1466 1466 1465 1465 1464 1463 1463 1462 1462 1462 1461 1461 1460 1459 1459 1458 1457 1456 1456 1455 1455 1454 1453 1453 1453
1465 1465 1465 1465 1465 1465 1465 1465 1465 1465 1464 1464 1464 1464 1464 1463 1463 1462 1461 1461 1460 1459 1459 1458 1457 1457 1456 1455 1454 1453 1452 1451 1451 1450 1449 1447 1447 1447
1463 1463 1463 1463 1463 1463 1464 1463 1463 1463 1463 1462 1462 1462 1461 1461 1460 1460 1459 1459 1458 1457 1456 1455 1454 1453 1452 1451 1452 1449 1448 1447 1446 1445 1444 1443 1441 1441
1460 1460 1461 1461 1462 1462 1462 1462 1462 1461 1461 1461 1460 1460 1459 1459 1458 1457 1457 1456 1455 1455 1454 1453 1452 1451 1449 1447 1446 1447 1445 1443 1441 1440 1439 1438 1436 1435
1458 1459 1459 1460 1460 1460 1460 1460 1460 1460 1459 1459 1458 1458 1457 1457 1456 1455 1455 1454 1453 1452 1451 1450 1449 1448 1447 1445 1442 1441 1441 1439 1437 1435 1434 1432 1431 1430
1456 1457 1457 1458 1458 1458 1458 1458 1458 1458 1457 1457 1456 1456 1455 1455 1454 1453 1452 1451 1450 1449 1448 1447 1446 1445 1443 1441 1439 1436 1436 1435 1434 1432 1429 1427 1425 1423
1454 1454 1455 1455 1456 1456 1456 1456 1456 1456 1455 1455 1454 1453 1453 1452 1451 1450 1449 1448 1447 1446 1444 1443 1441 1440 1438 1437 1434 1432 1430 1428 1427 1426 1425 1424 1421 1418
1451 1452 1453 1453 1453 1453 1453 1453 1453 1453 1453 1452 1451 1451 1450 1449 1448 1447 1446 1445 1443 1442 1440 1438 1437 1435 1434 1432 1430 1427 1425 1423 1421 1419 1418 1417 1416 1413